Flag for Canada Weather past 2 weeks in Winnipeg, Manitoba, Canada

Now
28 °F

Chilly.


Feels Like: 28 °F
Forecast: 27 / 32 °F
Wind: 2 mph from Southwest

Location: Winnipeg The Forks

Current Time: Dec 20, 2014 at 9:35:26 PM

Latest Report: Dec 20, 2014 at 8:00 PM


Visibility: N/A

Pressure: 29.90 "Hg

Humidity: 95%

Dew point: 26 °F

Location of WinnipegLocation

Historic Weather in Winnipeg — Graph

°F

Winnipeg temperature yesterday

Maximum temperature yesterday: 28 °F (at 11:00 PM)
Minimum temperature yesterday: 20 °F (at 12:00 AM)
Average temperature yesterday: 24 °F

Past Weeks' High & Low Weather Summary

 TemperatureHumidityPressure
High35 °F (Dec 13, 8:00 PM)100% (Dec 13, 11:00 AM)30.61 "Hg (Dec 13, 11:00 AM)
Low1 °F (Dec 17, 7:00 AM)67% (Dec 7, 1:00 AM)29.83 "Hg (Dec 12, 6:00 PM)
Average21 °F86%30.16 "Hg
* Reported Dec 5 8:00 PM — Dec 20 8:00 PM, Winnipeg, Weather by CustomWeather, © 2014

Note: Actual official high and low records may vary slightly from our data, if they occured in-between our weather recording intervals... More about our weather records

Advertising

Winnipeg weather history for previous 24 hours

 ConditionsComfort  
Time TempWeatherWind HumidityBarometerVisibility
8:00 PM
Dec 20
28 °FChilly.2 mph95%29.90 "HgN/A
7:00 PM27 °FChilly.5 mph96%29.93 "HgN/A
6:00 PM27 °FChilly.3 mph94%29.93 "HgN/A
5:00 PM28 °FChilly.2 mph91%29.94 "HgN/A
4:00 PM28 °FChilly.2 mph93%29.95 "HgN/A
3:00 PM28 °FChilly.1 mph94%29.95 "HgN/A
2:00 PM28 °FChilly.5 mph91%29.96 "HgN/A
1:00 PM28 °FChilly.5 mph90%29.97 "HgN/A
12:00 PM28 °FChilly.3 mph89%29.99 "HgN/A
11:00 AM28 °FChilly.1 mph91%30.01 "HgN/A
10:00 AM27 °FChilly.1 mph93%30.03 "HgN/A
9:00 AM27 °FChilly.No wind94%30.03 "HgN/A
8:00 AM26 °FChilly.2 mph95%30.03 "HgN/A
7:00 AM26 °FChilly.2 mph95%30.03 "HgN/A
5:00 AM26 °FChilly.2 mph95%30.03 "HgN/A
4:00 AM27 °FChilly.2 mph94%30.04 "HgN/A
3:00 AM27 °FChilly.1 mph92%30.05 "HgN/A
2:00 AM27 °FChilly.No wind93%30.04 "HgN/A
1:00 AM29 °FChilly.1 mph85%30.05 "HgN/A
12:00 AM28 °FChilly.No wind94%30.05 "HgN/A
11:00 PM
Dec 19
28 °FChilly.2 mph94%30.05 "HgN/A
10:00 PM27 °FChilly.1 mph95%30.06 "HgN/A
9:00 PM27 °FChilly.1 mph94%30.06 "HgN/A
Weather by CustomWeather, © 2014

See weather overviewHow to use our weather pages